Torna al catalogo

SL-6 R/B(2)

AttivoHEO
NORAD 16533·ROCKET BODY·🇷🇺 Russia

Lanciato Feb 1, 1986 da Plesetsk Cosmodrome

Loading…

Prossimi Passaggi (prossime 24 ore)

TLE

AggiornatoSource: Space-Track

Epoca: Sep 13, 2026, 07:54 UTC

1 16533U 86011F   26256.32964429 -.00000390  00000-0  00000-0 0  9997
2 16533  71.0546 119.0723 5227443 359.6447 188.2787  2.04056213285853

Traccia SL-6 R/B(2) in tempo reale con AllMySat

Download on the App Store